    Observer details:
    012 Uccle.  Observer T. Pauwels.  0.85-m f/2.5 Schmidt + CCD.
    046 Klet.  Observers M. Tichy, Z. Moravec.  0.57-m f/5.2 reflector + CCD.
    348 Ayabe.  Observer N. Otuki.  0.28-m f/5.5 Schmidt-Cassegrain + CCD.
    402 Dynic Astronomical Observatory.  Observer A. Sugie.  0.60-m f/3.7 reflector
        + CCD.
    428 Reedy Creek.  Observer J. Broughton.  0.25-m f/6.3 Schmidt-Cassegrain
        + CCD.
    557 Ondrejov.  Observers P. Pravec, P. Kusnirak.  0.65-m f/3.6 reflector + CCD.
    611 Starkenburg.  Observers M. Busch, R. Stoss.  0.45-m f/4.4 reflector + CCD.
    658 Dominion Astrophysical Observatory.  Observer D. D. Balam.  1.82-m
        reflector + CCD.
    670 Camarillo.  Observer J. E. Rogers.  0.30-m f/6.7 Helin Telescope + CCD.
    704 Lincoln Laboratory ETS, New Mexico.  Observers M. Blythe, F. Shelly,
        M. Bezpalko, M. Elowitz, R. Huber, L. Manguso.  Measurers J. Stuart,
        R. Sayer, J. B. Evans.  1.0-m f/2.15 reflector + CCD.
    719 Etscorn Observatory.  Observer D. A. Klinglesmith III.  0.355-m
        Schmidt-Cassegrain + CCD.
    734 Farpoint Observatory.  Observer G. Hug.  0.30-m Schmidt-Cassegrain + CCD.
    739 Sunflower Observatory, Olathe.  Observer L. Robinson.  0.25-m
        Schmidt-Cassegrain + CCD.
    750 Hobbs Observatory, Fall Creek.  Observer R. Elliott.  0.3-m f/3.3 reflector
        + CCD.
    858 Tebbutt Observatory, Edgewood.  Observer F. B. Zoltowski.  0.3-m f/3.3
        Schmidt-Cassegrain + CCD.
    860 Valinhos.  Observer P. R. Holvorcem, J. Camargo.  0.36-m f/3.6
        Schmidt-Cassegrain + CCD.
    903 Fukuchiyama.  Observer M. Yoshimi.  0.25-m f/6.3 Schmidt-Cassegrain + CCD.
    952 Marxuquera.  Observer J. J. Gomez.  0.25-m f/6.3 Schmidt-Cassegrain + CCD.
    
    Orbital elements:
    2000 KE41
    Epoch 2000 May 16.0 TT = JDT 2451680.5                  Williams
    M   9.07692              (2000.0)            P               Q
    n   0.19637276     Peri.   56.58923     -0.25446951     -0.66953576
    a   2.9314460      Node    65.24300     +0.40883730     -0.72841089
    e   0.8624885      Incl.   50.21560     +0.87641162     +0.14539413
    P   5.02           H   17.7           G   0.15
    From 88 observations 2000 May 28-31.
    
    Ephemeris:
    2000 KE41                a,e,i = 2.93, 0.86, 50                  q = 0.4031
    Date    TT    R. A. (2000) Decl.     Delta      r     Elong.  Phase     V
    2000 05 26    15 07.16   +10 48.0    0.246    1.221   144.3    29.0    16.4
    2000 05 31    14 41.28   -02 04.9    0.325    1.297   146.4    25.6    17.0
    2000 06 05    14 27.01   -09 47.8    0.418    1.371   142.8    26.6    17.7
    2000 06 10    14 18.88   -14 43.2    0.519    1.443   137.9    28.1    18.3
    2000 06 15    14 14.39   -18 05.5    0.625    1.513   133.1    29.4    18.9
    2000 06 20    14 12.29   -20 32.6    0.735    1.582   128.5    30.2    19.3
    2000 06 25    14 11.86   -22 25.0    0.848    1.649   124.1    30.7    19.7
    
    2000 07 05    14 14.42   -25 08.7    1.080    1.779   116.0    30.9    20.4
    2000 07 15    14 20.10   -27 07.0    1.319    1.903   108.4    30.4    21.0
    2000 07 25    14 27.84   -28 41.0    1.562    2.023   101.2    29.5    21.5
    2000 08 04    14 37.09   -30 00.9    1.808    2.138    94.3    28.2    21.9
    
    Gareth V. Williams           (C) Copyright 2000 MPC           M.P.E.C. 2000-K40
    

    Read MPEC 2000-K39 Read MPEC 2000-L01


    MPEC number:

    Enter an MPEC number in one of the following forms:

    • 1997-B01 (the full form)
    • J97B01 (the packed version of the full form)
    • B01 (the abbreviated form)